Hourly Data Report for August 06, 2016

TORONTO CITY
ONTARIO

43°40'00.000" N
79°24'00.000" W
112.50 m
6158355
71508
XTO

Download Data

Hourly Data (August 2016)
Hourly Data Report for August 6, 2016
TIME
LST
Temp Definition
°C
Dew Point Definition
°C
Rel Hum Definition
%
Precip. Amount Definition
mm

Wind Dir Definition
10's deg

Wind Spd Definition
km/h
Visibility Definition
km
Stn Press Definition
kPa
Hmdx Definition


Wind Chill Definition


Weather Definition


00:00 24.1 14.5 55 0.0 LegendMM LegendMM   99.46 28   LegendNANA
01:00 23.4 13.3 53 0.0 LegendMM LegendMM   99.48 26   LegendNANA
02:00 22.1 12.9 56 0.0 LegendMM LegendMM   99.48 25   LegendNANA
03:00 21.0 13.3 61 0.0 LegendMM LegendMM   99.46     LegendNANA
04:00 20.2 13.5 65 0.0 LegendMM LegendMM   99.51     LegendNANA
05:00 19.6 13.8 69 0.0 LegendMM LegendMM   99.57     LegendNANA
06:00 19.6 13.9 70 0.0 LegendMM LegendMM   99.60     LegendNANA
07:00 20.5 14.4 68 0.0 LegendMM LegendMM   99.62     LegendNANA
08:00 22.1 15.3 65 0.0 LegendMM LegendMM   99.65 26   LegendNANA
09:00 23.9 16.0 62 0.0 LegendMM LegendMM   99.66 29   LegendNANA
10:00 26.6 15.9 52 0.0 LegendMM LegendMM   99.67 31   LegendNANA
11:00 25.9 12.1 42 0.0 LegendMM LegendMM   99.70 28   LegendNANA
12:00 27.9 12.8 39 0.0 LegendMM LegendMM   99.69 31   LegendNANA
13:00 28.5 12.1 36 0.0 LegendMM LegendMM   99.67 31   LegendNANA
14:00 29.3 11.6 33 0.0 LegendMM LegendMM   99.65 31   LegendNANA
15:00 29.0 10.9 32 0.0 LegendMM LegendMM   99.60 31   LegendNANA
16:00 28.7 11.8 35 0.0 LegendMM LegendMM   99.59 31   LegendNANA
17:00 27.3 13.5 42 0.0 LegendMM LegendMM   99.57 30   LegendNANA
18:00 27.9 11.3 36 0.0 LegendMM LegendMM   99.59 30   LegendNANA
19:00 26.7 13.5 44 0.0 LegendMM LegendMM   99.65 30   LegendNANA
20:00 25.4 13.5 47 0.0 LegendMM LegendMM   99.70 28   LegendNANA
21:00 24.5 11.8 45 0.0 LegendMM LegendMM   99.78 27   LegendNANA
22:00 23.4 11.4 47 0.0 LegendMM LegendMM   99.82 25   LegendNANA
23:00 22.7 11.3 49 0.0 LegendMM LegendMM   99.86 25   LegendNANA

Notes on Data Quality.

Legend

  • E = Estimated
  • M = Missing
  • NA = Not Available*
  • [empty] = Indicates an unobserved value
Date modified: